Regional Weather Roundup
Issued by NWS

Home | Current Version | Previous Version | Text Only | Print | Product List | Glossary On
Versions: 1 2 3 4 5 6 7 8 9 10 11 12 13 14 15 16 17 18 19 20 21 22 23 24 25 26 27 28 29 30 31 32 33 34 35 36 37 38 39 40 41 42 43 44 45 46 47 48 49 50
944
ASUS45 KABQ 251810
RWRNM
NEW MEXICO REGIONAL WEATHER ROUNDUP
NATIONAL WEATHER SERVICE ALBUQUERQUE NM
1200 PM MDT THU AUG 25 2016

NOTE: "FAIR" MEANS FEW OR NO CLOUDS BELOW 12,000 FEET AGL WITH NO
       SIGNIFICANT WEATHER OR OBSTRUCTIONS TO VISION.

      THIS PRODUCT IS RELEASED AS TWO VERSIONS.  ONE VERSION NEAR
      THE TOP OF THE HOUR CONTAINING PRELIMINARY DATA FROM ALBUQUERQUE
      AND OTHER STATIONS.  A FINAL VERSION WITH ADDITIONAL DATA IS
      ISSUED ABOUT 10 MINUTES AFTER THE HOUR.

NMZ501-503-504-510>518-251900-
NORTHWEST PLATEAU/NORTHCENTRAL MOUNTAINS

CITY           SKY/WX    TMP DP  RH WIND       PRES   REMARKS
FARMINGTON     FAIR      74  44  34 VRB3      30.23F
6HR MIN TEMP:  53; 6HR MAX TEMP:  74;

LOS ALAMOS     FAIR      65  50  57 E5        30.36F
SANTA FE       FAIR      72  46  39 CALM      30.30F
6HR MIN TEMP:  49; 6HR MAX TEMP:  72;

TAOS           FAIR      66  43  42 CALM      30.35F
ANGEL FIRE     FAIR      64  40  41 NE3       30.41F

$$
NMZ402-403-502-505>509-251900-
WESTCENTRAL MOUNTAINS/SOUTHWEST MOUNTAINS

CITY           SKY/WX    TMP DP  RH WIND       PRES   REMARKS
GALLUP         FAIR      75  40  28 CALM      30.29F
6HR MIN TEMP:  43; 6HR MAX TEMP:  75;

GRANTS         FAIR      73  38  28 CALM      30.32F
SILVER CITY    FAIR      78  47  33 S9        30.24F

$$
NMZ407-409-411-412-251900-
SOUTHERN DESERTS

CITY           SKY/WX    TMP DP  RH WIND       PRES   REMARKS
DEMING         FAIR      83  51  33 E7        30.17F
6HR MIN TEMP:  61; 6HR MAX TEMP:  84;

LAS CRUCES     FAIR      81  48  31 E5        30.19F
HOLLOMAN AFB   FAIR      80  55  42 VRB5      30.15F
ALAMOGORDO     FAIR      81  50  34 SW5       30.18F
T OR C         FAIR      80  48  32 CALM      30.20F
6HR MIN TEMP:  61; 6HR MAX TEMP:  80;


$$
NMZ519>523-251900-
CENTRAL VALLEYS/CENTRAL HIGHLANDS

CITY           SKY/WX    TMP DP  RH WIND       PRES   REMARKS
ALBUQUERQUE    FAIR      75  47  36 SW5       30.26F
6HR MIN TEMP:  58; 6HR MAX TEMP:  75;

MORIARTY ARPT  FAIR      69  48  46 SE3       30.32F
6HR MIN TEMP:  45; 6HR MAX TEMP:  69;

CLINES CORNERS FAIR      68  47  46 CALM      30.35F
6HR MIN TEMP:  48; 6HR MAX TEMP:  69;

BELEN          FAIR      73  44  34 W3        30.25F
6HR MIN TEMP:  52; 6HR MAX TEMP:  74;

SOCORRO        FAIR      79  44  29 E3        30.22F
6HR MIN TEMP:  58; 6HR MAX TEMP:  79;


$$
NMZ524>526-539-540-251900-
SOUTHCENTRAL MOUNTAINS

CITY           SKY/WX    TMP DP  RH WIND       PRES   REMARKS
RUIDOSO          N/A     68  48  49 E7        30.36F

$$
NMZ527>531-251900-
NORTHEAST HIGHLANDS/NORTHEAST PLAINS

CITY           SKY/WX    TMP DP  RH WIND       PRES   REMARKS
LAS VEGAS      FAIR      69  47  45 S7        30.34F
6HR MIN TEMP:  43; 6HR MAX TEMP:  69;

RATON          FAIR      69  44  40 VRB5      30.29F
6HR MIN TEMP:  46; 6HR MAX TEMP:  70;

CLAYTON        FAIR      71  52  50 VRB5      30.27S
6HR MIN TEMP:  55; 6HR MAX TEMP:  72;


$$
NMZ532>537-251900-
EASTCENTRAL PLAINS

CITY           SKY/WX    TMP DP  RH WIND       PRES   REMARKS
TUCUMCARI      FAIR      76  56  49 VRB3      30.20F
6HR MIN TEMP:  59; 6HR MAX TEMP:  76;

CANNON AFB     PTSUNNY   77  59  53 E7        30.21F
6HR MIN TEMP:  59; 6HR MAX TEMP:  77;

CLOVIS AIRPORT FAIR      73  59  60 E3        30.21F

$$
NMZ028-029-538-251900-
SOUTHEAST PLAINS

CITY           SKY/WX    TMP DP  RH WIND       PRES   REMARKS
ROSWELL        FAIR      78  60  53 NE7       30.17F
6HR MIN TEMP:  66; 6HR MAX TEMP:  78;

ARTESIA        FAIR      77  64  65 N9        30.17F
CARLSBAD       FAIR      73  64  73 N10       30.15F
6HR MIN TEMP:  63; 6HR MAX TEMP:  73;

HOBBS          PTSUNNY   73  68  83 CALM      30.19F


$$




USA.gov is the U.S. government's official web portal to all federal, state and local government web resources and services.